Meteo Giornale » Osservazioni meteo Italia » Rimini

ore: 00:50 - Osservazioni Meteo Rimini
Lat. 44° 2' N Lon. 12° 37' E Alt. 12 metri s.l.m.

sereno Europe/Rome

11 °C

Sereno

Temp. 24 Ore

11 °C

20 °C

Nord

5.5 Km/h

Dew point 8 °C

Umidità 81 %

Visibilità  10 Km

Il sole sorge alle ore 06:54

Il sole tramonta alle ore 19:10

Data e Ora Cielo e Fenomeni T °C DP °C Um. % Pres. hPa Vis. km Vento km/h
Oggi h: 00:50 sereno Sereno 11 8 81 1024 10 N 5.5
Oggi h: 00:20 sereno Sereno 11 8 81 1024 10 N 1.8
Ieri h: 23:50 sereno Sereno 12 8 76 1024 10 S 7.4
Ieri h: 23:20 sereno Sereno 12 9 81 1025 10 N 1.8
Ieri h: 22:50 sereno Sereno 12 9 81 1024 10 N 5.5
Ieri h: 22:20 sereno Sereno 13 9 76 1025 10 N 5.5
Ieri h: 21:50 sereno Sereno 13 9 76 1025 10 N 5.5
Ieri h: 21:20 sereno Sereno 13 9 76 1024 10 N 5.5
Ieri h: 20:50 sereno Sereno 14 10 76 1024 10 N 5.5
Ieri h: 20:20 sereno Sereno 15 10 72 1024 10 N 5.5
Ieri h: 19:50 sereno Sereno 16 8 58 1024 10 N 3.7
Ieri h: 19:20 sereno Sereno 17 7 51 1024 10 N 3.7
Ieri h: 18:50 sereno Sereno 18 8 51 1024 10 N 5.5
Ieri h: 18:20 sereno Sereno 19 7 45 1024 10 N 5.5
Ieri h: 17:50 sereno Sereno 19 7 45 1024 10 N/NE 9.3
Ieri h: 17:20 sereno Sereno 19 7 45 1024 10 N 9.3
Ieri h: 16:50 sereno Sereno 19 7 45 1024 10 NE 9.3
Ieri h: 16:20 sereno Sereno 20 8 45 1024 10 NE 9.3
Ieri h: 15:20 poco_nuvoloso Poco Nuvoloso 20 7 42 1024 10 N/NE 13
Ieri h: 14:50 poco_nuvoloso Poco Nuvoloso 20 8 45 1024 10 N/NE 14.8
Ieri h: 14:20 sereno Sereno 20 8 45 1025 10 N/NE 14.8
Ieri h: 13:50 sereno Sereno 20 10 52 1025 10 N/NE 14.8
Ieri h: 13:20 poco_nuvoloso Poco Nuvoloso 20 10 52 1025 10 NE 14.8
Ieri h: 12:50 poco_nuvoloso Poco Nuvoloso 20 10 52 1025 10 NE 13
Ieri h: 12:20 poco_nuvoloso Poco Nuvoloso 20 11 56 1025 10 N/NE 16.7
Ieri h: 11:50 poco_nuvoloso Poco Nuvoloso 20 11 56 1025 10 NE 14.8
Ieri h: 11:20 poco_nuvoloso Poco Nuvoloso 20 11 56 1025 10 N/NE 13
Ieri h: 10:20 poco_nuvoloso Poco Nuvoloso 19 12 63 1025 10 N/NO 7.4
Ieri h: 09:50 nuvoloso Nuvoloso 18 12 67 1025 10 O/SO 7.4
Ieri h: 09:20 nuvoloso Nuvoloso 17 12 72 1024 10 O 11.1
Ieri h: 08:50 nuvoloso Nuvoloso 16 12 77 1024 10 O/SO 9.3
Ieri h: 08:20 nuvoloso Nuvoloso 15 12 82 1024 10 O/SO 7.4
Ieri h: 07:50 nuvoloso Nuvoloso 15 12 82 1024 10 N 5.5
Ieri h: 07:20 poco_nuvoloso Poco Nuvoloso 13 11 87 1023 10 N 3.7
Ieri h: 05:50 sereno Sereno 14 11 82 1023 10 N 5.5
Ieri h: 05:20 sereno Sereno 15 10 72 1023 10 O 9.3
Ieri h: 04:50 sereno Sereno 18 9 55 1023 10 N/NE 13
Ieri h: 04:20 sereno Sereno 18 10 59 1023 10 N/NE 14.8
Ieri h: 03:50 sereno Sereno 19 10 55 1023 10 N/NE 16.7
Ieri h: 03:20 sereno Sereno 19 9 52 1023 10 N/NE 14.8
Ieri h: 02:50 sereno Sereno 19 10 55 1023 10 N/NE 14.8
Ieri h: 02:20 sereno Sereno 19 10 55 1023 10 N/NE 18.5
Ieri h: 01:50 sereno Sereno 19 10 55 1023 10 N/NE 16.7